Time,TemperatureF,DewpointF,PressureIn,WindDirection,WindDirectionDegrees,WindSpeedMPH,WindSpeedGustMPH,Humidity,HourlyPrecipIn,Conditions,Clouds,dailyrainin,SoftwareType,DateUTC
2013-01-03 00:00:00,41.8,37.8,30.16,ENE,68,0.4,0.7,86,0.00,,,0.00,WUHU216HW,2013-01-03 05:00:00,
2013-01-03 00:03:00,41.6,37.6,30.15,ENE,68,0.2,0.7,86,0.00,,,0.00,WUHU216HW,2013-01-03 05:03:00,
2013-01-03 00:08:00,41.6,37.6,30.15,ESE,113,0.2,0.4,86,0.00,,,0.00,WUHU216HW,2013-01-03 05:08:00,
2013-01-03 00:13:00,41.6,37.6,30.15,ESE,113,0.0,0.4,86,0.00,,,0.00,WUHU216HW,2013-01-03 05:13:00,
2013-01-03 00:18:00,41.6,37.6,30.15,SSE,158,0.0,0.4,86,0.00,,,0.00,WUHU216HW,2013-01-03 05:18:00,
2013-01-03 00:23:00,41.6,37.6,30.14,ESE,113,0.4,0.4,86,0.00,,,0.00,WUHU216HW,2013-01-03 05:23:00,
2013-01-03 00:28:00,41.6,37.6,30.15,NW,315,0.4,0.4,86,0.00,,,0.00,WUHU216HW,2013-01-03 05:28:00,
2013-01-03 00:33:00,41.6,37.6,30.15,WNW,293,0.0,0.7,86,0.00,,,0.00,WUHU216HW,2013-01-03 05:33:00,
2013-01-03 00:38:00,41.8,37.8,30.15,NW,315,0.0,0.7,86,0.00,,,0.00,WUHU216HW,2013-01-03 05:38:00,
2013-01-03 00:43:00,41.8,37.8,30.15,WNW,293,0.0,0.2,86,0.00,,,0.00,WUHU216HW,2013-01-03 05:43:00,
2013-01-03 00:48:00,41.8,38.2,30.15,West,270,0.0,0.4,87,0.00,,,0.00,WUHU216HW,2013-01-03 05:48:00,
2013-01-03 00:53:00,41.8,37.8,30.15,WNW,293,0.0,0.4,86,0.00,,,0.00,WUHU216HW,2013-01-03 05:53:00,
2013-01-03 00:58:00,41.6,37.6,30.15,WNW,293,0.0,0.0,86,0.00,,,0.00,WUHU216HW,2013-01-03 05:58:00,
2013-01-03 01:03:00,41.6,37.6,30.14,ESE,113,0.4,0.4,86,0.00,,,0.00,WUHU216HW,2013-01-03 06:03:00,
2013-01-03 01:08:00,41.6,37.6,30.14,ESE,113,0.4,0.4,86,0.00,,,0.00,WUHU216HW,2013-01-03 06:08:00,
2013-01-03 01:13:00,41.4,37.4,30.13,ESE,113,1.3,1.3,86,0.00,,,0.00,WUHU216HW,2013-01-03 06:13:00,
2013-01-03 01:18:00,41.4,37.4,30.13,ESE,113,0.7,1.6,86,0.00,,,0.00,WUHU216HW,2013-01-03 06:18:00,
2013-01-03 01:23:00,41.4,37.4,30.13,East,90,0.4,1.6,86,0.00,,,0.00,WUHU216HW,2013-01-03 06:23:00,
2013-01-03 01:28:00,41.4,37.4,30.13,ESE,113,0.9,1.3,86,0.00,,,0.00,WUHU216HW,2013-01-03 06:28:00,
2013-01-03 01:33:00,41.4,37.4,30.13,ESE,113,0.4,1.1,86,0.00,,,0.00,WUHU216HW,2013-01-03 06:33:00,
2013-01-03 01:38:00,41.2,37.3,30.12,ESE,113,0.4,1.1,86,0.00,,,0.00,WUHU216HW,2013-01-03 06:38:00,
2013-01-03 01:43:00,41.2,37.3,30.13,ESE,113,0.0,1.1,86,0.00,,,0.00,WUHU216HW,2013-01-03 06:43:00,
2013-01-03 01:48:00,41.2,37.3,30.13,ENE,68,0.2,1.1,86,0.00,,,0.00,WUHU216HW,2013-01-03 06:48:00,
2013-01-03 01:53:00,41.2,37.3,30.13,SE,135,0.0,0.7,86,0.00,,,0.00,WUHU216HW,2013-01-03 06:53:00,
2013-01-03 01:58:00,41.2,37.3,30.14,SSE,158,0.0,0.7,86,0.00,,,0.00,WUHU216HW,2013-01-03 06:58:00,
2013-01-03 02:03:00,41.4,37.4,30.14,East,90,0.0,0.4,86,0.00,,,0.00,WUHU216HW,2013-01-03 07:03:00,
2013-01-03 02:08:00,41.0,37.1,30.14,NNE,23,0.4,0.7,86,0.00,,,0.00,WUHU216HW,2013-01-03 07:08:00,
2013-01-03 02:13:00,41.0,37.5,30.14,NE,45,0.4,0.7,87,0.00,,,0.00,WUHU216HW,2013-01-03 07:13:00,
2013-01-03 02:18:00,40.9,37.3,30.13,ENE,68,0.4,1.1,87,0.00,,,0.00,WUHU216HW,2013-01-03 07:18:00,
2013-01-03 02:23:00,40.9,37.3,30.14,ENE,68,0.2,1.1,87,0.00,,,0.00,WUHU216HW,2013-01-03 07:23:00,
2013-01-03 02:28:00,40.9,37.3,30.14,East,90,0.4,0.9,87,0.00,,,0.00,WUHU216HW,2013-01-03 07:28:00,
2013-01-03 02:34:00,41.0,37.5,30.15,East,90,0.0,0.4,87,0.00,,,0.00,WUHU216HW,2013-01-03 07:34:00,
2013-01-03 02:39:00,41.0,37.5,30.15,ENE,68,0.0,0.4,87,0.00,,,0.00,WUHU216HW,2013-01-03 07:39:00,
2013-01-03 02:44:00,41.0,37.5,30.16,WNW,293,0.0,0.7,87,0.00,,,0.00,WUHU216HW,2013-01-03 07:44:00,
2013-01-03 02:49:00,41.0,37.5,30.16,North,0,0.0,0.7,87,0.00,,,0.00,WUHU216HW,2013-01-03 07:49:00,
2013-01-03 02:54:00,41.0,37.5,30.16,North,0,0.4,0.7,87,0.00,,,0.00,WUHU216HW,2013-01-03 07:54:00,
2013-01-03 02:59:00,40.9,37.3,30.15,North,0,0.2,0.7,87,0.00,,,0.00,WUHU216HW,2013-01-03 07:59:00,
2013-01-03 03:03:00,40.9,37.3,30.15,NE,45,0.0,0.7,87,0.00,,,0.00,WUHU216HW,2013-01-03 08:03:00,
2013-01-03 03:09:00,40.9,37.3,30.15,East,90,0.0,0.7,87,0.00,,,0.00,WUHU216HW,2013-01-03 08:09:00,
2013-01-03 03:13:00,40.9,37.3,30.15,ENE,68,0.4,0.7,87,0.00,,,0.00,WUHU216HW,2013-01-03 08:13:00,
2013-01-03 03:18:00,40.9,37.3,30.15,ENE,68,0.0,0.7,87,0.00,,,0.00,WUHU216HW,2013-01-03 08:18:00,
2013-01-03 03:23:00,41.0,37.5,30.15,ENE,68,0.0,0.4,87,0.00,,,0.00,WUHU216HW,2013-01-03 08:23:00,
2013-01-03 03:28:00,41.0,37.5,30.15,ENE,68,0.0,0.4,87,0.00,,,0.00,WUHU216HW,2013-01-03 08:28:00,
2013-01-03 03:33:00,41.0,37.5,30.14,ESE,113,1.1,1.1,87,0.00,,,0.00,WUHU216HW,2013-01-03 08:33:00,
2013-01-03 03:38:00,41.0,37.1,30.15,SE,135,0.0,1.1,86,0.00,,,0.00,WUHU216HW,2013-01-03 08:38:00,
2013-01-03 03:43:00,41.0,37.5,30.16,NE,45,0.0,1.1,87,0.00,,,0.00,WUHU216HW,2013-01-03 08:43:00,
2013-01-03 03:48:00,40.9,37.3,30.16,North,0,0.4,0.4,87,0.00,,,0.00,WUHU216HW,2013-01-03 08:48:00,
2013-01-03 03:53:00,40.9,37.3,30.16,NNE,23,0.4,0.4,87,0.00,,,0.00,WUHU216HW,2013-01-03 08:53:00,
2013-01-03 03:58:00,40.7,37.1,30.15,NNE,23,0.4,0.4,87,0.00,,,0.00,WUHU216HW,2013-01-03 08:58:00,
2013-01-03 04:03:00,40.9,37.3,30.15,NNE,23,0.0,0.4,87,0.00,,,0.00,WUHU216HW,2013-01-03 09:03:00,
2013-01-03 04:09:00,40.9,37.3,30.14,ESE,113,1.1,1.1,87,0.00,,,0.00,WUHU216HW,2013-01-03 09:09:00,
2013-01-03 04:14:00,40.9,37.3,30.13,SE,135,0.7,1.6,87,0.00,,,0.00,WUHU216HW,2013-01-03 09:14:00,
2013-01-03 04:19:00,40.9,37.3,30.13,East,90,1.3,1.6,87,0.00,,,0.00,WUHU216HW,2013-01-03 09:19:00,
2013-01-03 04:24:00,40.9,37.3,30.13,NE,45,0.4,1.6,87,0.00,,,0.00,WUHU216HW,2013-01-03 09:24:00,
2013-01-03 04:29:00,40.9,37.3,30.13,NE,45,0.0,1.6,87,0.00,,,0.00,WUHU216HW,2013-01-03 09:29:00,
2013-01-03 04:34:00,40.9,37.3,30.14,NNE,23,0.0,0.7,87,0.00,,,0.00,WUHU216HW,2013-01-03 09:34:00,
2013-01-03 04:39:00,40.9,37.3,30.14,NW,315,0.2,0.7,87,0.00,,,0.00,WUHU216HW,2013-01-03 09:39:00,
2013-01-03 04:44:00,40.9,37.3,30.15,NNE,23,0.0,0.4,87,0.00,,,0.00,WUHU216HW,2013-01-03 09:44:00,
2013-01-03 04:49:00,40.9,37.3,30.14,East,90,0.9,1.1,87,0.00,,,0.00,WUHU216HW,2013-01-03 09:49:00,
2013-01-03 04:54:00,40.9,37.3,30.14,ENE,68,0.0,1.1,87,0.00,,,0.00,WUHU216HW,2013-01-03 09:54:00,
2013-01-03 04:59:00,40.7,36.8,30.15,East,90,0.0,0.9,86,0.00,,,0.00,WUHU216HW,2013-01-03 09:59:00,
2013-01-03 05:04:00,40.9,36.9,30.14,SE,135,0.4,0.4,86,0.00,,,0.00,WUHU216HW,2013-01-03 10:04:00,
2013-01-03 05:09:00,40.9,36.9,30.14,SE,135,0.4,0.4,86,0.00,,,0.00,WUHU216HW,2013-01-03 10:09:00,
2013-01-03 05:14:00,40.9,36.9,30.14,SE,135,0.0,0.7,86,0.00,,,0.00,WUHU216HW,2013-01-03 10:14:00,
2013-01-03 05:19:00,40.7,36.8,30.14,SE,135,0.7,0.7,86,0.00,,,0.00,WUHU216HW,2013-01-03 10:19:00,
2013-01-03 05:24:00,40.7,36.8,30.14,ESE,113,0.4,1.1,86,0.00,,,0.00,WUHU216HW,2013-01-03 10:24:00,
2013-01-03 05:29:00,40.7,36.8,30.15,East,90,1.1,1.3,86,0.00,,,0.00,WUHU216HW,2013-01-03 10:29:00,
2013-01-03 05:34:00,40.7,36.8,30.16,ENE,68,0.0,1.3,86,0.00,,,0.00,WUHU216HW,2013-01-03 10:34:00,
2013-01-03 05:39:00,40.7,36.8,30.16,ENE,68,0.0,1.1,86,0.00,,,0.00,WUHU216HW,2013-01-03 10:39:00,
2013-01-03 05:44:00,40.7,36.8,30.16,NE,45,0.0,1.1,86,0.00,,,0.00,WUHU216HW,2013-01-03 10:44:00,
2013-01-03 05:49:00,40.7,37.1,30.16,ENE,68,0.4,0.7,87,0.00,,,0.00,WUHU216HW,2013-01-03 10:49:00,
2013-01-03 05:54:00,40.7,37.1,30.15,ESE,113,0.4,0.7,87,0.00,,,0.00,WUHU216HW,2013-01-03 10:54:00,
2013-01-03 05:59:00,40.7,36.8,30.14,ENE,68,0.7,1.1,86,0.00,,,0.00,WUHU216HW,2013-01-03 10:59:00,
2013-01-03 06:04:00,40.5,36.9,30.15,NE,45,0.2,1.1,87,0.00,,,0.00,WUHU216HW,2013-01-03 11:04:00,
2013-01-03 06:09:00,40.5,36.9,30.15,ENE,68,0.7,1.1,87,0.00,,,0.00,WUHU216HW,2013-01-03 11:09:00,
2013-01-03 06:14:00,40.5,36.9,30.15,ENE,68,0.0,1.1,87,0.00,,,0.00,WUHU216HW,2013-01-03 11:14:00,
2013-01-03 06:19:00,40.5,36.9,30.15,East,90,0.4,1.1,87,0.00,,,0.00,WUHU216HW,2013-01-03 11:19:00,
2013-01-03 06:24:00,40.5,36.9,30.16,East,90,1.1,1.6,87,0.00,,,0.00,WUHU216HW,2013-01-03 11:24:00,
2013-01-03 06:29:00,40.5,36.6,30.16,ESE,113,0.7,1.6,86,0.00,,,0.00,WUHU216HW,2013-01-03 11:29:00,
2013-01-03 06:34:00,40.5,36.6,30.16,East,90,0.9,0.9,86,0.00,,,0.00,WUHU216HW,2013-01-03 11:34:00,
2013-01-03 06:39:00,40.5,36.6,30.16,East,90,0.2,1.1,86,0.00,,,0.00,WUHU216HW,2013-01-03 11:39:00,
2013-01-03 06:44:00,40.5,36.9,30.16,NE,45,0.4,1.3,87,0.00,,,0.00,WUHU216HW,2013-01-03 11:44:00,
2013-01-03 06:49:00,40.5,36.9,30.16,ENE,68,0.0,1.8,87,0.00,,,0.00,WUHU216HW,2013-01-03 11:49:00,
2013-01-03 06:54:00,40.3,36.5,30.17,ENE,68,0.2,1.8,86,0.00,,,0.00,WUHU216HW,2013-01-03 11:54:00,
2013-01-03 06:59:00,40.3,36.5,30.17,ESE,113,0.7,1.8,86,0.00,,,0.00,WUHU216HW,2013-01-03 11:59:00,
2013-01-03 07:04:00,40.3,36.5,30.18,ESE,113,0.0,1.8,86,0.00,,,0.00,WUHU216HW,2013-01-03 12:04:00,
2013-01-03 07:09:00,40.3,36.5,30.19,ENE,68,0.7,1.1,86,0.00,,,0.00,WUHU216HW,2013-01-03 12:09:00,
2013-01-03 07:14:00,40.3,36.5,30.17,East,90,1.1,1.8,86,0.00,,,0.00,WUHU216HW,2013-01-03 12:14:00,
2013-01-03 07:19:00,40.1,36.3,30.17,East,90,0.4,2.7,86,0.00,,,0.00,WUHU216HW,2013-01-03 12:19:00,
2013-01-03 07:24:00,40.1,36.3,30.17,ESE,113,1.1,2.7,86,0.00,,,0.00,WUHU216HW,2013-01-03 12:24:00,
2013-01-03 07:29:00,40.1,36.3,30.17,ESE,113,0.4,1.6,86,0.00,,,0.00,WUHU216HW,2013-01-03 12:29:00,
2013-01-03 07:34:00,40.3,36.5,30.17,ESE,113,0.7,1.1,86,0.00,,,0.00,WUHU216HW,2013-01-03 12:34:00,
2013-01-03 07:39:00,40.3,36.5,30.17,ESE,113,1.8,1.8,86,0.00,,,0.00,WUHU216HW,2013-01-03 12:39:00,
2013-01-03 07:44:00,40.1,36.3,30.18,NNE,23,0.4,1.8,86,0.00,,,0.00,WUHU216HW,2013-01-03 12:44:00,
2013-01-03 07:49:00,40.1,36.3,30.17,ENE,68,0.4,1.8,86,0.00,,,0.00,WUHU216HW,2013-01-03 12:49:00,
2013-01-03 07:54:00,40.1,36.3,30.17,ESE,113,1.1,2.5,86,0.00,,,0.00,WUHU216HW,2013-01-03 12:54:00,
2013-01-03 07:59:00,40.0,36.1,30.17,ENE,68,0.4,2.5,86,0.00,,,0.00,WUHU216HW,2013-01-03 12:59:00,
2013-01-03 08:04:00,40.0,36.1,30.17,East,90,1.1,2.5,86,0.00,,,0.00,WUHU216HW,2013-01-03 13:04:00,
2013-01-03 08:09:00,40.0,36.1,30.17,ENE,68,1.6,2.5,86,0.00,,,0.00,WUHU216HW,2013-01-03 13:09:00,
2013-01-03 08:14:00,40.0,36.1,30.17,ENE,68,0.9,2.9,86,0.00,,,0.00,WUHU216HW,2013-01-03 13:14:00,
2013-01-03 08:19:00,40.0,36.4,30.18,ENE,68,1.8,2.9,87,0.00,,,0.00,WUHU216HW,2013-01-03 13:19:00,
2013-01-03 08:24:00,40.0,36.1,30.18,ESE,113,0.7,2.7,86,0.00,,,0.00,WUHU216HW,2013-01-03 13:24:00,
2013-01-03 08:29:00,40.1,36.3,30.18,NE,45,1.8,1.8,86,0.00,,,0.00,WUHU216HW,2013-01-03 13:29:00,
2013-01-03 08:34:00,40.1,36.3,30.18,East,90,0.2,1.8,86,0.00,,,0.00,WUHU216HW,2013-01-03 13:34:00,
2013-01-03 08:39:00,40.1,36.3,30.18,East,90,1.1,1.8,86,0.00,,,0.00,WUHU216HW,2013-01-03 13:39:00,
2013-01-03 08:44:00,40.1,36.3,30.18,ESE,113,0.7,1.8,86,0.00,,,0.00,WUHU216HW,2013-01-03 13:44:00,
2013-01-03 08:49:00,40.3,36.5,30.18,NE,45,0.4,1.8,86,0.00,,,0.00,WUHU216HW,2013-01-03 13:49:00,
2013-01-03 08:54:00,40.3,36.5,30.19,East,90,0.7,2.5,86,0.00,,,0.00,WUHU216HW,2013-01-03 13:54:00,
2013-01-03 08:59:00,40.1,36.3,30.19,East,90,0.9,2.5,86,0.00,,,0.00,WUHU216HW,2013-01-03 13:59:00,
2013-01-03 09:04:00,40.3,36.5,30.19,East,90,0.2,2.0,86,0.00,,,0.00,WUHU216HW,2013-01-03 14:04:00,
2013-01-03 09:09:00,40.3,36.1,30.19,ENE,68,1.1,2.9,85,0.00,,,0.00,WUHU216HW,2013-01-03 14:09:00,
2013-01-03 09:14:00,40.3,36.1,30.19,ENE,68,0.4,2.9,85,0.00,,,0.00,WUHU216HW,2013-01-03 14:14:00,
2013-01-03 09:19:00,40.3,36.1,30.19,ESE,113,1.6,1.6,85,0.00,,,0.00,WUHU216HW,2013-01-03 14:19:00,
2013-01-03 09:24:00,40.5,36.0,30.20,NE,45,0.4,2.0,84,0.00,,,0.00,WUHU216HW,2013-01-03 14:24:00,
2013-01-03 09:29:00,40.5,36.3,30.19,East,90,1.1,2.2,85,0.00,,,0.00,WUHU216HW,2013-01-03 14:29:00,
2013-01-03 09:34:00,40.5,36.0,30.20,ESE,113,1.1,2.5,84,0.00,,,0.00,WUHU216HW,2013-01-03 14:34:00,
2013-01-03 09:39:00,40.5,36.0,30.20,NE,45,1.8,2.5,84,0.00,,,0.00,WUHU216HW,2013-01-03 14:39:00,
2013-01-03 09:44:00,40.5,36.0,30.20,East,90,0.7,2.9,84,0.00,,,0.00,WUHU216HW,2013-01-03 14:44:00,
2013-01-03 09:49:00,40.7,35.8,30.21,ESE,113,2.2,3.4,83,0.00,,,0.00,WUHU216HW,2013-01-03 14:49:00,
2013-01-03 09:54:00,40.7,35.8,30.20,East,90,1.1,3.4,83,0.00,,,0.00,WUHU216HW,2013-01-03 14:54:00,
2013-01-03 09:59:00,40.7,35.8,30.20,East,90,1.3,4.0,83,0.00,,,0.00,WUHU216HW,2013-01-03 14:59:00,
2013-01-03 10:04:00,40.7,35.6,30.20,ESE,113,2.0,4.0,82,0.00,,,0.00,WUHU216HW,2013-01-03 15:04:00,
2013-01-03 10:09:00,40.7,35.6,30.21,East,90,2.0,3.4,82,0.00,,,0.00,WUHU216HW,2013-01-03 15:09:00,
2013-01-03 10:13:00,40.9,35.7,30.21,East,90,1.1,3.1,82,0.00,,,0.00,WUHU216HW,2013-01-03 15:13:00,
2013-01-03 10:19:00,41.0,35.9,30.21,ESE,113,2.2,3.4,82,0.00,,,0.00,WUHU216HW,2013-01-03 15:19:00,
2013-01-03 10:24:00,41.0,36.2,30.20,East,90,2.5,3.4,83,0.00,,,0.00,WUHU216HW,2013-01-03 15:24:00,
2013-01-03 10:29:00,41.0,35.9,30.21,ENE,68,1.8,2.7,82,0.00,,,0.00,WUHU216HW,2013-01-03 15:29:00,
2013-01-03 10:34:00,41.0,36.2,30.20,SE,135,0.7,2.5,83,0.00,,,0.00,WUHU216HW,2013-01-03 15:34:00,
2013-01-03 10:39:00,41.2,36.1,30.21,ENE,68,0.0,2.0,82,0.00,,,0.00,WUHU216HW,2013-01-03 15:39:00,
2013-01-03 10:44:00,41.2,36.1,30.20,East,90,0.9,2.2,82,0.00,,,0.00,WUHU216HW,2013-01-03 15:44:00,
2013-01-03 10:49:00,41.2,36.1,30.21,NE,45,0.2,2.2,82,0.00,,,0.00,WUHU216HW,2013-01-03 15:49:00,
2013-01-03 10:54:00,41.2,35.7,30.20,ESE,113,1.1,2.5,81,0.00,,,0.00,WUHU216HW,2013-01-03 15:54:00,
2013-01-03 10:59:00,41.2,35.7,30.20,ENE,68,0.4,2.5,81,0.00,,,0.00,WUHU216HW,2013-01-03 15:59:00,
2013-01-03 11:04:00,41.2,36.1,30.20,ESE,113,0.4,2.2,82,0.00,,,0.00,WUHU216HW,2013-01-03 16:04:00,
2013-01-03 11:09:00,41.4,35.9,30.19,ESE,113,1.1,2.5,81,0.00,,,0.00,WUHU216HW,2013-01-03 16:09:00,
2013-01-03 11:14:00,41.4,35.9,30.20,ESE,113,0.4,2.5,81,0.00,,,0.00,WUHU216HW,2013-01-03 16:14:00,
2013-01-03 11:18:00,41.4,35.9,30.19,SSE,158,0.4,2.9,81,0.00,,,0.00,WUHU216HW,2013-01-03 16:18:00,
2013-01-03 11:23:00,41.6,36.1,30.19,East,90,0.9,2.9,81,0.00,,,0.00,WUHU216HW,2013-01-03 16:23:00,
2013-01-03 11:28:00,41.4,35.6,30.18,NE,45,3.1,3.1,80,0.00,,,0.00,WUHU216HW,2013-01-03 16:28:00,
2013-01-03 11:33:00,41.4,35.6,30.18,ESE,113,2.2,3.1,80,0.00,,,0.00,WUHU216HW,2013-01-03 16:33:00,
2013-01-03 11:38:00,41.6,35.8,30.17,ENE,68,0.7,3.4,80,0.00,,,0.00,WUHU216HW,2013-01-03 16:38:00,
2013-01-03 11:43:00,41.8,36.0,30.17,ENE,68,0.7,3.4,80,0.00,,,0.00,WUHU216HW,2013-01-03 16:43:00,
2013-01-03 11:48:00,41.9,35.8,30.17,ENE,68,1.1,2.7,79,0.00,,,0.00,WUHU216HW,2013-01-03 16:48:00,
2013-01-03 11:53:00,42.1,36.4,30.17,West,270,0.4,2.7,80,0.00,,,0.00,WUHU216HW,2013-01-03 16:53:00,
2013-01-03 11:58:00,42.1,36.4,30.17,ESE,113,0.4,1.1,80,0.00,,,0.00,WUHU216HW,2013-01-03 16:58:00,
2013-01-03 12:03:00,42.1,35.7,30.17,NE,45,1.1,2.2,78,0.00,,,0.00,WUHU216HW,2013-01-03 17:03:00,
2013-01-03 12:08:00,42.3,35.9,30.17,NE,45,0.7,3.1,78,0.00,,,0.00,WUHU216HW,2013-01-03 17:08:00,
2013-01-03 12:13:00,42.1,35.4,30.16,ENE,68,0.4,3.6,77,0.00,,,0.00,WUHU216HW,2013-01-03 17:13:00,
2013-01-03 12:18:00,42.1,35.4,30.16,NNE,23,0.0,3.6,77,0.00,,,0.00,WUHU216HW,2013-01-03 17:18:00,
2013-01-03 12:23:00,42.3,35.9,30.16,North,0,0.0,2.5,78,0.00,,,0.00,WUHU216HW,2013-01-03 17:23:00,
2013-01-03 12:28:00,42.7,35.9,30.16,ENE,68,3.1,3.1,77,0.00,,,0.00,WUHU216HW,2013-01-03 17:28:00,
2013-01-03 12:33:00,42.8,36.1,30.15,ENE,68,0.2,3.1,77,0.00,,,0.00,WUHU216HW,2013-01-03 17:33:00,
2013-01-03 12:38:00,42.8,36.1,30.16,NE,45,1.8,3.1,77,0.00,,,0.00,WUHU216HW,2013-01-03 17:38:00,
2013-01-03 12:43:00,42.8,36.1,30.15,NNE,23,1.1,2.2,77,0.00,,,0.00,WUHU216HW,2013-01-03 17:43:00,
2013-01-03 12:48:00,42.8,36.1,30.15,East,90,1.6,2.2,77,0.00,,,0.00,WUHU216HW,2013-01-03 17:48:00,
2013-01-03 12:53:00,43.2,36.1,30.14,ESE,113,2.0,3.1,76,0.00,,,0.00,WUHU216HW,2013-01-03 17:53:00,
2013-01-03 12:58:00,43.6,36.2,30.14,NE,45,1.3,3.1,75,0.00,,,0.00,WUHU216HW,2013-01-03 17:58:00,
2013-01-03 13:03:00,43.6,35.8,30.14,ESE,113,2.2,2.7,74,0.00,,,0.00,WUHU216HW,2013-01-03 18:03:00,
2013-01-03 13:08:00,43.6,36.2,30.14,ESE,113,3.1,3.4,75,0.00,,,0.00,WUHU216HW,2013-01-03 18:08:00,
2013-01-03 13:13:00,43.6,35.8,30.13,WNW,293,0.7,3.4,74,0.00,,,0.00,WUHU216HW,2013-01-03 18:13:00,
2013-01-03 13:18:00,43.7,36.3,30.13,ENE,68,0.0,3.1,75,0.00,,,0.00,WUHU216HW,2013-01-03 18:18:00,
2013-01-03 13:23:00,44.1,36.6,30.13,SSE,158,1.1,1.1,75,0.00,,,0.00,WUHU216HW,2013-01-03 18:23:00,
2013-01-03 13:28:00,44.3,36.5,30.13,West,270,0.0,2.5,74,0.00,,,0.00,WUHU216HW,2013-01-03 18:28:00,
2013-01-03 13:33:00,44.5,36.6,30.13,WNW,293,0.0,2.5,74,0.00,,,0.00,WUHU216HW,2013-01-03 18:33:00,
2013-01-03 13:38:00,44.6,36.8,30.13,East,90,1.6,1.8,74,0.00,,,0.00,WUHU216HW,2013-01-03 18:38:00,
2013-01-03 13:43:00,44.6,36.8,30.13,ESE,113,0.0,2.0,74,0.00,,,0.00,WUHU216HW,2013-01-03 18:43:00,
2013-01-03 13:48:00,44.8,36.6,30.13,North,0,0.4,2.0,73,0.00,,,0.00,WUHU216HW,2013-01-03 18:48:00,
2013-01-03 13:53:00,44.8,37.0,30.13,SSE,158,0.4,2.2,74,0.00,,,0.00,WUHU216HW,2013-01-03 18:53:00,
2013-01-03 13:58:00,45.0,36.8,30.13,SE,135,0.2,2.2,73,0.00,,,0.00,WUHU216HW,2013-01-03 18:58:00,
2013-01-03 14:03:00,45.0,36.6,30.13,West,270,1.1,2.5,72,0.00,,,0.00,WUHU216HW,2013-01-03 19:03:00,
2013-01-03 14:08:00,45.2,36.7,30.13,WNW,293,0.4,2.5,72,0.00,,,0.00,WUHU216HW,2013-01-03 19:08:00,
2013-01-03 14:13:00,45.4,36.9,30.14,SW,225,0.7,2.0,72,0.00,,,0.00,WUHU216HW,2013-01-03 19:13:00,
2013-01-03 14:18:00,45.5,37.1,30.13,West,270,0.7,2.0,72,0.00,,,0.00,WUHU216HW,2013-01-03 19:18:00,
2013-01-03 14:56:00,45.4,36.9,30.14,NW,315,2.0,2.0,72,0.00,,,0.00,WUHU216HW,2013-01-03 19:56:00,
2013-01-03 15:01:00,45.5,37.1,30.14,North,0,0.2,2.0,72,0.00,,,0.00,WUHU216HW,2013-01-03 20:01:00,
2013-01-03 15:06:00,45.0,36.2,30.14,North,0,0.0,2.2,71,0.00,,,0.00,WUHU216HW,2013-01-03 20:06:00,
2013-01-03 15:11:00,45.0,36.2,30.14,ESE,113,0.4,2.2,71,0.00,,,0.00,WUHU216HW,2013-01-03 20:11:00,
2013-01-03 15:16:00,45.0,36.6,30.15,ENE,68,0.4,1.8,72,0.00,,,0.00,WUHU216HW,2013-01-03 20:16:00,
2013-01-03 15:21:00,45.0,36.6,30.15,ENE,68,0.9,1.6,72,0.00,,,0.00,WUHU216HW,2013-01-03 20:21:00,
2013-01-03 15:26:00,45.0,36.6,30.15,North,0,0.4,1.6,72,0.00,,,0.00,WUHU216HW,2013-01-03 20:26:00,
2013-01-03 15:31:00,45.2,36.7,30.15,WSW,248,0.0,1.3,72,0.00,,,0.00,WUHU216HW,2013-01-03 20:31:00,
2013-01-03 15:36:00,45.2,36.7,30.16,North,0,1.1,1.1,72,0.00,,,0.00,WUHU216HW,2013-01-03 20:36:00,
2013-01-03 15:41:00,45.0,36.6,30.15,NNW,338,0.0,1.3,72,0.00,,,0.00,WUHU216HW,2013-01-03 20:41:00,
2013-01-03 15:46:00,45.0,36.6,30.16,ESE,113,0.4,1.3,72,0.00,,,0.00,WUHU216HW,2013-01-03 20:46:00,
2013-01-03 15:51:00,45.0,36.6,30.16,NNE,23,0.2,0.4,72,0.00,,,0.00,WUHU216HW,2013-01-03 20:51:00,
2013-01-03 15:56:00,44.8,36.4,30.16,North,0,1.1,1.1,72,0.00,,,0.00,WUHU216HW,2013-01-03 20:56:00,
2013-01-03 16:01:00,44.6,36.2,30.16,ENE,68,0.4,2.5,72,0.00,,,0.00,WUHU216HW,2013-01-03 21:01:00,
2013-01-03 16:06:00,44.6,35.8,30.17,East,90,1.1,2.5,71,0.00,,,0.00,WUHU216HW,2013-01-03 21:06:00,
2013-01-03 16:11:00,44.5,36.0,30.16,NNE,23,0.4,1.1,72,0.00,,,0.00,WUHU216HW,2013-01-03 21:11:00,
2013-01-03 16:16:00,44.6,36.2,30.17,North,0,0.4,1.1,72,0.00,,,0.00,WUHU216HW,2013-01-03 21:16:00,
2013-01-03 16:21:00,44.6,36.2,30.16,NNE,23,0.9,0.9,72,0.00,,,0.00,WUHU216HW,2013-01-03 21:21:00,
2013-01-03 16:26:00,44.6,36.5,30.17,NNE,23,0.0,0.9,73,0.00,,,0.00,WUHU216HW,2013-01-03 21:26:00,
2013-01-03 16:31:00,44.5,36.4,30.18,North,0,0.4,0.9,73,0.00,,,0.00,WUHU216HW,2013-01-03 21:31:00,
2013-01-03 16:36:00,44.5,36.4,30.18,NE,45,0.2,1.1,73,0.00,,,0.00,WUHU216HW,2013-01-03 21:36:00,
2013-01-03 16:43:00,44.5,36.4,30.18,North,0,0.4,1.1,73,0.00,,,0.00,WUHU216HW,2013-01-03 21:43:00,
2013-01-03 16:48:00,44.3,36.2,30.17,NNW,338,2.5,2.5,73,0.00,,,0.00,WUHU216HW,2013-01-03 21:48:00,
2013-01-03 16:53:00,44.3,36.2,30.18,NE,45,0.7,2.5,73,0.00,,,0.00,WUHU216HW,2013-01-03 21:53:00,
2013-01-03 16:58:00,44.1,36.4,30.18,North,0,0.0,2.0,74,0.00,,,0.00,WUHU216HW,2013-01-03 21:58:00,
2013-01-03 17:03:00,44.1,36.4,30.17,North,0,0.2,2.0,74,0.00,,,0.00,WUHU216HW,2013-01-03 22:03:00,
2013-01-03 17:08:00,43.9,36.2,30.17,NNE,23,1.6,1.8,74,0.00,,,0.00,WUHU216HW,2013-01-03 22:08:00,
2013-01-03 17:13:00,43.9,36.2,30.17,NNE,23,0.0,1.8,74,0.00,,,0.00,WUHU216HW,2013-01-03 22:13:00,
2013-01-03 17:18:00,43.9,36.2,30.18,NNE,23,0.0,1.3,74,0.00,,,0.00,WUHU216HW,2013-01-03 22:18:00,
2013-01-03 17:23:00,43.7,36.0,30.17,NNE,23,0.0,1.1,74,0.00,,,0.00,WUHU216HW,2013-01-03 22:23:00,
2013-01-03 17:28:00,43.7,36.3,30.18,NNW,338,0.4,1.1,75,0.00,,,0.00,WUHU216HW,2013-01-03 22:28:00,
2013-01-03 17:33:00,43.6,36.2,30.17,ENE,68,0.9,1.1,75,0.00,,,0.00,WUHU216HW,2013-01-03 22:33:00,
2013-01-03 17:38:00,43.6,36.2,30.17,NW,315,0.2,1.3,75,0.00,,,0.00,WUHU216HW,2013-01-03 22:38:00,
2013-01-03 17:43:00,43.6,36.2,30.18,North,0,0.2,1.3,75,0.00,,,0.00,WUHU216HW,2013-01-03 22:43:00,
2013-01-03 17:48:00,43.4,36.3,30.19,NNE,23,0.4,1.1,76,0.00,,,0.00,WUHU216HW,2013-01-03 22:48:00,
2013-01-03 17:53:00,43.2,36.1,30.19,North,0,0.4,1.1,76,0.00,,,0.00,WUHU216HW,2013-01-03 22:53:00,
2013-01-03 17:58:00,43.0,36.3,30.18,NNW,338,1.3,1.3,77,0.00,,,0.00,WUHU216HW,2013-01-03 22:58:00,
2013-01-03 18:03:00,43.0,36.3,30.19,North,0,1.1,1.8,77,0.00,,,0.00,WUHU216HW,2013-01-03 23:03:00,
2013-01-03 18:08:00,42.8,36.1,30.19,NW,315,1.1,2.0,77,0.00,,,0.00,WUHU216HW,2013-01-03 23:08:00,
2013-01-03 18:13:00,42.7,35.9,30.19,North,0,0.7,3.4,77,0.00,,,0.00,WUHU216HW,2013-01-03 23:13:00,
2013-01-03 18:18:00,42.5,36.1,30.20,NW,315,1.1,3.4,78,0.00,,,0.00,WUHU216HW,2013-01-03 23:18:00,
2013-01-03 18:23:00,42.5,36.1,30.20,North,0,0.4,2.7,78,0.00,,,0.00,WUHU216HW,2013-01-03 23:23:00,
2013-01-03 18:28:00,42.5,36.1,30.21,North,0,0.0,2.7,78,0.00,,,0.00,WUHU216HW,2013-01-03 23:28:00,
2013-01-03 18:33:00,42.7,36.3,30.21,West,270,0.0,0.9,78,0.00,,,0.00,WUHU216HW,2013-01-03 23:33:00,
2013-01-03 18:38:00,42.8,36.5,30.20,NW,315,0.0,0.9,78,0.00,,,0.00,WUHU216HW,2013-01-03 23:38:00,
2013-01-03 18:43:00,42.7,36.3,30.20,North,0,0.4,0.9,78,0.00,,,0.00,WUHU216HW,2013-01-03 23:43:00,
2013-01-03 18:48:00,42.5,36.1,30.20,North,0,0.0,0.9,78,0.00,,,0.00,WUHU216HW,2013-01-03 23:48:00,
2013-01-03 18:53:00,42.3,35.9,30.21,NNW,338,0.2,0.9,78,0.00,,,0.00,WUHU216HW,2013-01-03 23:53:00,
2013-01-03 18:58:00,42.5,36.4,30.21,North,0,0.0,0.7,79,0.00,,,0.00,WUHU216HW,2013-01-03 23:58:00,
2013-01-03 19:03:00,42.3,36.2,30.20,East,90,0.0,0.4,79,0.00,,,0.00,WUHU216HW,2013-01-04 00:03:00,
2013-01-03 19:08:00,42.3,36.2,30.20,ESE,113,0.0,0.4,79,0.00,,,0.00,WUHU216HW,2013-01-04 00:08:00,
2013-01-03 19:13:00,42.5,36.4,30.21,ESE,113,0.0,0.0,79,0.00,,,0.00,WUHU216HW,2013-01-04 00:13:00,
2013-01-03 19:18:00,42.3,36.2,30.21,ESE,113,0.0,0.0,79,0.00,,,0.00,WUHU216HW,2013-01-04 00:18:00,
2013-01-03 19:23:00,42.3,36.2,30.21,SE,135,0.0,0.0,79,0.00,,,0.00,WUHU216HW,2013-01-04 00:23:00,
2013-01-03 19:28:00,42.3,36.2,30.21,SE,135,0.0,0.0,79,0.00,,,0.00,WUHU216HW,2013-01-04 00:28:00,
2013-01-03 19:33:00,42.1,36.0,30.21,SE,135,0.0,0.0,79,0.00,,,0.00,WUHU216HW,2013-01-04 00:33:00,
2013-01-03 19:38:00,42.1,36.0,30.21,SE,135,0.0,0.0,79,0.00,,,0.00,WUHU216HW,2013-01-04 00:38:00,
2013-01-03 19:43:00,41.6,35.5,30.21,NE,45,0.0,0.0,79,0.00,,,0.00,WUHU216HW,2013-01-04 00:43:00,
2013-01-03 19:48:00,41.2,35.5,30.21,NW,315,0.0,0.4,80,0.00,,,0.00,WUHU216HW,2013-01-04 00:48:00,
2013-01-03 19:53:00,40.9,35.1,30.21,NW,315,0.0,0.4,80,0.00,,,0.00,WUHU216HW,2013-01-04 00:53:00,
2013-01-03 19:58:00,40.9,35.5,30.21,NW,315,0.0,0.0,81,0.00,,,0.00,WUHU216HW,2013-01-04 00:58:00,
2013-01-03 20:03:00,41.0,35.6,30.21,NW,315,0.0,0.0,81,0.00,,,0.00,WUHU216HW,2013-01-04 01:03:00,
2013-01-03 20:08:00,41.0,35.6,30.21,NW,315,0.0,0.0,81,0.00,,,0.00,WUHU216HW,2013-01-04 01:08:00,
2013-01-03 20:13:00,40.9,35.5,30.21,NW,315,0.0,0.0,81,0.00,,,0.00,WUHU216HW,2013-01-04 01:13:00,
2013-01-03 20:18:00,40.9,35.5,30.22,NW,315,0.0,0.0,81,0.00,,,0.00,WUHU216HW,2013-01-04 01:18:00,
2013-01-03 20:23:00,40.7,35.3,30.22,NW,315,0.0,0.0,81,0.00,,,0.00,WUHU216HW,2013-01-04 01:23:00,
2013-01-03 20:28:00,40.7,35.3,30.21,WNW,293,0.0,0.0,81,0.00,,,0.00,WUHU216HW,2013-01-04 01:28:00,
2013-01-03 20:33:00,40.5,35.1,30.21,WNW,293,0.0,0.0,81,0.00,,,0.00,WUHU216HW,2013-01-04 01:33:00,
2013-01-03 20:38:00,40.5,35.1,30.22,NW,315,0.2,0.4,81,0.00,,,0.00,WUHU216HW,2013-01-04 01:38:00,
2013-01-03 20:43:00,40.1,34.5,30.22,WNW,293,0.0,0.4,80,0.00,,,0.00,WUHU216HW,2013-01-04 01:43:00,
2013-01-03 20:48:00,40.0,34.6,30.22,WNW,293,0.0,0.2,81,0.00,,,0.00,WUHU216HW,2013-01-04 01:48:00,
2013-01-03 20:53:00,39.8,34.5,30.22,West,270,0.0,0.4,81,0.00,,,0.00,WUHU216HW,2013-01-04 01:53:00,
2013-01-03 20:58:00,39.6,34.3,30.22,West,270,0.0,0.4,81,0.00,,,0.00,WUHU216HW,2013-01-04 01:58:00,
2013-01-03 21:03:00,39.6,34.3,30.22,WSW,248,0.0,0.0,81,0.00,,,0.00,WUHU216HW,2013-01-04 02:03:00,
2013-01-03 21:08:00,39.4,34.1,30.22,WSW,248,0.0,0.0,81,0.00,,,0.00,WUHU216HW,2013-01-04 02:08:00,
2013-01-03 21:13:00,39.2,33.9,30.22,WSW,248,0.0,0.0,81,0.00,,,0.00,WUHU216HW,2013-01-04 02:13:00,
2013-01-03 21:18:00,39.2,34.2,30.22,WSW,248,0.0,0.0,82,0.00,,,0.00,WUHU216HW,2013-01-04 02:18:00,
2013-01-03 21:23:00,39.2,34.2,30.22,SW,225,0.0,0.0,82,0.00,,,0.00,WUHU216HW,2013-01-04 02:23:00,
2013-01-03 21:28:00,38.9,33.8,30.22,SW,225,0.0,0.0,82,0.00,,,0.00,WUHU216HW,2013-01-04 02:28:00,
2013-01-03 21:33:00,38.7,33.7,30.22,SE,135,0.0,0.0,82,0.00,,,0.00,WUHU216HW,2013-01-04 02:33:00,
2013-01-03 21:38:00,38.5,33.5,30.22,SE,135,0.0,0.0,82,0.00,,,0.00,WUHU216HW,2013-01-04 02:38:00,
2013-01-03 21:43:00,38.5,33.5,30.23,SE,135,0.0,0.0,82,0.00,,,0.00,WUHU216HW,2013-01-04 02:43:00,
2013-01-03 21:48:00,38.5,33.5,30.22,SE,135,0.0,0.0,82,0.00,,,0.00,WUHU216HW,2013-01-04 02:48:00,
2013-01-03 21:53:00,38.3,33.3,30.22,South,180,0.0,0.0,82,0.00,,,0.00,WUHU216HW,2013-01-04 02:53:00,
2013-01-03 21:58:00,38.2,33.1,30.23,WNW,293,0.2,0.4,82,0.00,,,0.00,WUHU216HW,2013-01-04 02:58:00,
2013-01-03 22:03:00,37.8,32.8,30.22,WNW,293,0.0,0.4,82,0.00,,,0.00,WUHU216HW,2013-01-04 03:03:00,
2013-01-03 22:08:00,37.8,33.1,30.22,WNW,293,0.0,0.4,83,0.00,,,0.00,WUHU216HW,2013-01-04 03:08:00,
2013-01-03 22:13:00,37.8,33.1,30.22,WNW,293,0.0,0.2,83,0.00,,,0.00,WUHU216HW,2013-01-04 03:13:00,
2013-01-03 22:18:00,37.6,33.0,30.23,WNW,293,0.0,0.0,83,0.00,,,0.00,WUHU216HW,2013-01-04 03:18:00,
2013-01-03 22:23:00,37.6,33.0,30.22,NE,45,0.0,0.2,83,0.00,,,0.00,WUHU216HW,2013-01-04 03:23:00,
2013-01-03 22:28:00,37.4,32.8,30.22,ENE,68,0.0,0.2,83,0.00,,,0.00,WUHU216HW,2013-01-04 03:28:00,
2013-01-03 22:33:00,37.4,32.4,30.22,ENE,68,0.0,0.0,82,0.00,,,0.00,WUHU216HW,2013-01-04 03:33:00,
2013-01-03 22:38:00,37.3,32.2,30.22,East,90,0.2,0.2,82,0.00,,,0.00,WUHU216HW,2013-01-04 03:38:00,
2013-01-03 22:43:00,37.1,32.4,30.23,East,90,0.0,0.2,83,0.00,,,0.00,WUHU216HW,2013-01-04 03:43:00,
2013-01-03 22:48:00,36.9,32.2,30.23,East,90,0.0,0.2,83,0.00,,,0.00,WUHU216HW,2013-01-04 03:48:00,
2013-01-03 22:53:00,36.9,32.2,30.23,East,90,0.0,0.0,83,0.00,,,0.00,WUHU216HW,2013-01-04 03:53:00,
2013-01-03 22:58:00,36.9,32.2,30.23,SE,135,0.0,0.0,83,0.00,,,0.00,WUHU216HW,2013-01-04 03:58:00,
2013-01-03 23:03:00,36.7,32.1,30.23,SE,135,0.0,0.0,83,0.00,,,0.00,WUHU216HW,2013-01-04 04:03:00,
2013-01-03 23:08:00,36.5,31.9,30.23,SE,135,0.0,0.0,83,0.00,,,0.00,WUHU216HW,2013-01-04 04:08:00,
2013-01-03 23:13:00,36.5,31.9,30.23,SE,135,0.0,0.0,83,0.00,,,0.00,WUHU216HW,2013-01-04 04:13:00,
2013-01-03 23:18:00,36.4,31.7,30.23,SE,135,0.0,0.0,83,0.00,,,0.00,WUHU216HW,2013-01-04 04:18:00,
2013-01-03 23:23:00,36.4,31.7,30.23,ESE,113,0.0,0.0,83,0.00,,,0.00,WUHU216HW,2013-01-04 04:23:00,
2013-01-03 23:28:00,36.4,31.7,30.23,ESE,113,0.0,0.0,83,0.00,,,0.00,WUHU216HW,2013-01-04 04:28:00,
2013-01-03 23:33:00,36.2,31.8,30.23,East,90,0.0,0.0,84,0.00,,,0.00,WUHU216HW,2013-01-04 04:33:00,
2013-01-03 23:38:00,36.0,31.6,30.23,East,90,0.0,0.0,84,0.00,,,0.00,WUHU216HW,2013-01-04 04:38:00,
2013-01-03 23:43:00,36.0,31.6,30.23,East,90,0.0,0.0,84,0.00,,,0.00,WUHU216HW,2013-01-04 04:43:00,
2013-01-03 23:48:00,35.8,31.4,30.23,East,90,0.0,0.0,84,0.00,,,0.00,WUHU216HW,2013-01-04 04:48:00,
2013-01-03 23:53:00,35.6,31.2,30.23,East,90,0.0,0.0,84,0.00,,,0.00,WUHU216HW,2013-01-04 04:53:00,
2013-01-03 23:58:00,35.5,31.1,30.23,ESE,113,0.0,0.4,84,0.00,,,0.00,WUHU216HW,2013-01-04 04:58:00,